WAT850 EDDB-LSGG

Flight info

Callsign WAT850
Flight time 1h 20m
Altitude 37000
Route KISUC1Q KISUC Z117 ORTAG DCT BAMKI/N0461F380 DCT IBAGA DCT DKB DCT ETAGO N869 TEDGO/N0466F390 N869 NATOR DCT LUTIX DCT BENOT
Aircraft B763/H-SDE3FGHIM3RWXY/LB1

Departure

Time 2026-05-05 21:21
Airport Berlin Brandenburg Airport (EDDB)

Arrival

Time 2026-05-05 22:41
Airport Geneva International Airport (LSGG)
Time Latitude Longitude Altitude Speed Heading
2026-05-05 20:49 52.36136 13.50741 143 ft 0 kts 68°
2026-05-05 21:09 52.36131 13.50722 143 ft 2 kts 68°
2026-05-05 21:09 52.36126 13.50699 143 ft 2 kts 68°
2026-05-05 21:09 52.36121 13.50676 143 ft 2 kts 80°
2026-05-05 21:09 52.36121 13.50652 143 ft 2 kts 99°
2026-05-05 21:10 52.36124 13.50628 143 ft 2 kts 116°
2026-05-05 21:10 52.36132 13.50608 143 ft 2 kts 133°
2026-05-05 21:10 52.36144 13.50593 143 ft 2 kts 149°
2026-05-05 21:10 52.36152 13.50586 143 ft 0 kts 159°
2026-05-05 21:13 52.36139 13.50594 143 ft 7 kts 159°
2026-05-05 21:13 52.36056 13.50645 143 ft 15 kts 158°
2026-05-05 21:13 52.35951 13.50712 143 ft 16 kts 158°
2026-05-05 21:13 52.35872 13.50763 143 ft 10 kts 158°
2026-05-05 21:14 52.35807 13.50758 143 ft 8 kts 221°
2026-05-05 21:14 52.35782 13.50658 143 ft 13 kts 249°
2026-05-05 21:14 52.35731 13.50443 146 ft 23 kts 249°
2026-05-05 21:14 52.35673 13.50191 146 ft 23 kts 248°
2026-05-05 21:15 52.35614 13.49946 149 ft 22 kts 248°
2026-05-05 21:15 52.35557 13.49706 151 ft 24 kts 248°
2026-05-05 21:15 52.35494 13.49434 151 ft 26 kts 248°
2026-05-05 21:15 52.35424 13.49143 149 ft 27 kts 249°
2026-05-05 21:16 52.35356 13.48855 149 ft 27 kts 248°
2026-05-05 21:16 52.35288 13.48569 149 ft 27 kts 248°
2026-05-05 21:16 52.35220 13.48284 149 ft 26 kts 247°
2026-05-05 21:16 52.35151 13.47999 149 ft 27 kts 249°
2026-05-05 21:17 52.35081 13.47702 145 ft 28 kts 248°
2026-05-05 21:17 52.35008 13.47391 140 ft 30 kts 248°
2026-05-05 21:17 52.34933 13.47072 140 ft 30 kts 250°
2026-05-05 21:17 52.34868 13.46799 142 ft 23 kts 248°
2026-05-05 21:18 52.34793 13.46723 143 ft 12 kts 165°
2026-05-05 21:18 52.34713 13.46771 143 ft 12 kts 159°
2026-05-05 21:18 52.34681 13.46791 143 ft 0 kts 158°
2026-05-05 21:19 52.34652 13.46809 143 ft 13 kts 158°
2026-05-05 21:19 52.34574 13.46922 143 ft 14 kts 99°
2026-05-05 21:19 52.34580 13.46995 143 ft 0 kts 69°
2026-05-05 21:20 52.34594 13.47054 142 ft 18 kts 69°
2026-05-05 21:20 52.34705 13.47505 140 ft 66 kts 68°
2026-05-05 21:20 52.34928 13.48457 149 ft 117 kts 68°
2026-05-05 21:20 52.35291 13.49998 187 ft 174 kts 69°
2026-05-05 21:21 52.35725 13.52021 777 ft 198 kts 69°
2026-05-05 21:21 52.36124 13.54198 1678 ft 206 kts 78°
2026-05-05 21:21 52.36062 13.56491 2376 ft 214 kts 105°
2026-05-05 21:21 52.35136 13.58537 2721 ft 243 kts 143°
2026-05-05 21:22 52.33441 13.59352 3240 ft 268 kts 181°
2026-05-05 21:22 52.31695 13.58366 4084 ft 276 kts 214°
2026-05-05 21:22 52.30415 13.56058 4963 ft 279 kts 240°
2026-05-05 21:22 52.29404 13.53374 5859 ft 281 kts 231°
2026-05-05 21:23 52.28118 13.51023 6782 ft 281 kts 224°
2026-05-05 21:23 52.26925 13.48536 7663 ft 285 kts 245°
2026-05-05 21:23 52.26478 13.45409 8517 ft 289 kts 266°
2026-05-05 21:23 52.26414 13.42145 9448 ft 290 kts 266°
2026-05-05 21:24 52.26362 13.38878 10287 ft 294 kts 268°
2026-05-05 21:24 52.26334 13.35513 11142 ft 298 kts 268°
2026-05-05 21:24 52.26317 13.32132 11952 ft 302 kts 268°
2026-05-05 21:24 52.26305 13.28690 12669 ft 307 kts 268°
2026-05-05 21:25 52.26293 13.25185 13410 ft 311 kts 266°
2026-05-05 21:25 52.25931 13.21611 13507 ft 336 kts 249°
2026-05-05 21:25 52.24855 13.18096 13579 ft 362 kts 236°
2026-05-05 21:25 52.23470 13.14506 13798 ft 384 kts 238°
2026-05-05 21:26 52.22082 13.10795 14677 ft 386 kts 237°
2026-05-05 21:26 52.20675 13.07036 15322 ft 394 kts 237°
2026-05-05 21:26 52.19260 13.03267 16226 ft 394 kts 238°
2026-05-05 21:26 52.17826 12.99425 16948 ft 399 kts 238°
2026-05-05 21:27 52.16567 12.95363 17675 ft 404 kts 249°
2026-05-05 21:27 52.15785 12.90994 18427 ft 408 kts 256°
2026-05-05 21:27 52.15142 12.86466 19133 ft 411 kts 255°
2026-05-05 21:27 52.14496 12.81986 19881 ft 414 kts 256°
2026-05-05 21:28 52.13846 12.77445 20667 ft 415 kts 256°
2026-05-05 21:28 52.13189 12.72836 21374 ft 418 kts 256°
2026-05-05 21:28 52.12535 12.68258 22007 ft 421 kts 256°
2026-05-05 21:28 52.11877 12.63654 22689 ft 423 kts 256°
2026-05-05 21:29 52.11205 12.58958 23322 ft 425 kts 256°
2026-05-05 21:29 52.10537 12.54316 23817 ft 430 kts 256°
2026-05-05 21:29 52.09851 12.49559 24426 ft 432 kts 255°
2026-05-05 21:29 52.09163 12.44795 24884 ft 436 kts 255°
2026-05-05 21:30 52.08465 12.39987 25397 ft 439 kts 255°
2026-05-05 21:30 52.07663 12.35220 25896 ft 440 kts 249°
2026-05-05 21:30 52.06395 12.30718 26371 ft 440 kts 238°
2026-05-05 21:30 52.04712 12.26652 26828 ft 442 kts 232°
2026-05-05 21:31 52.02884 12.22579 27267 ft 444 kts 232°
2026-05-05 21:31 52.01054 12.18544 27681 ft 447 kts 232°
2026-05-05 21:31 51.99212 12.14507 28092 ft 450 kts 231°
2026-05-05 21:31 51.97351 12.10454 28547 ft 451 kts 231°
2026-05-05 21:32 51.95488 12.06400 28997 ft 452 kts 231°
2026-05-05 21:32 51.93596 12.02298 29274 ft 456 kts 231°
2026-05-05 21:32 51.91703 11.98199 29643 ft 457 kts 231°
2026-05-05 21:32 51.89790 11.94072 30023 ft 458 kts 231°
2026-05-05 21:33 51.87869 11.89927 30310 ft 460 kts 231°
2026-05-05 21:33 51.85977 11.85852 30724 ft 460 kts 231°
2026-05-05 21:33 51.84049 11.81737 31064 ft 460 kts 230°
2026-05-05 21:33 51.82101 11.77622 31417 ft 460 kts 230°
2026-05-05 21:34 51.80178 11.73564 31809 ft 459 kts 230°
2026-05-05 21:34 51.78243 11.69487 32198 ft 458 kts 230°
2026-05-05 21:34 51.76299 11.65398 32654 ft 456 kts 229°
2026-05-05 21:34 51.74386 11.61382 32960 ft 456 kts 229°
2026-05-05 21:35 51.72440 11.57302 33356 ft 454 kts 229°
2026-05-05 21:35 51.70526 11.53291 33698 ft 453 kts 229°
2026-05-05 21:35 51.68593 11.49255 34104 ft 451 kts 229°
2026-05-05 21:35 51.66671 11.45240 34403 ft 451 kts 228°
2026-05-05 21:36 51.64767 11.41278 34668 ft 450 kts 229°
2026-05-05 21:36 51.62851 11.37290 35013 ft 449 kts 229°
2026-05-05 21:36 51.60935 11.33310 35235 ft 447 kts 228°
2026-05-05 21:36 51.59028 11.29359 35462 ft 446 kts 228°
2026-05-05 21:37 51.57137 11.25443 35611 ft 447 kts 228°
2026-05-05 21:37 51.55228 11.21497 35850 ft 445 kts 228°
2026-05-05 21:37 51.53307 11.17629 35983 ft 444 kts 224°
2026-05-05 21:37 51.51102 11.14244 36089 ft 441 kts 215°
2026-05-05 21:38 51.48560 11.11524 36239 ft 437 kts 206°
2026-05-05 21:38 51.45775 11.09571 36362 ft 435 kts 197°
2026-05-05 21:38 51.42833 11.08431 36469 ft 434 kts 188°
2026-05-05 21:38 51.39859 11.07830 36621 ft 433 kts 186°
2026-05-05 21:39 51.36887 11.07373 36782 ft 418 kts 185°
2026-05-05 21:39 51.34000 11.07012 36780 ft 416 kts 184°
2026-05-05 21:39 51.28238 11.06438 36786 ft 422 kts 184°
2026-05-05 21:40 51.22311 11.05934 36787 ft 428 kts 183°
2026-05-05 21:40 51.16375 11.05459 36787 ft 431 kts 183°
2026-05-05 21:41 51.10341 11.04986 36780 ft 432 kts 183°
2026-05-05 21:41 51.04385 11.04524 36784 ft 430 kts 183°
2026-05-05 21:42 50.98406 11.04061 36788 ft 431 kts 183°
2026-05-05 21:42 50.92426 11.03601 36783 ft 432 kts 183°
2026-05-05 21:43 50.86415 11.03139 36793 ft 432 kts 183°
2026-05-05 21:43 50.80427 11.02681 36796 ft 432 kts 183°
2026-05-05 21:44 50.74421 11.02219 36794 ft 432 kts 183°
2026-05-05 21:44 50.68567 11.00364 36807 ft 434 kts 195°
2026-05-05 21:45 50.62787 10.97646 36780 ft 434 kts 195°
2026-05-05 21:45 50.57039 10.94908 36782 ft 434 kts 196°
2026-05-05 21:46 50.51221 10.92129 36782 ft 436 kts 195°
2026-05-05 21:46 50.45438 10.89368 36781 ft 435 kts 196°
2026-05-05 21:47 50.39654 10.86611 36785 ft 435 kts 195°
2026-05-05 21:47 50.33834 10.83843 36782 ft 438 kts 195°
2026-05-05 21:48 50.27995 10.81075 36796 ft 436 kts 195°
2026-05-05 21:48 50.22200 10.78334 36802 ft 436 kts 195°
2026-05-05 21:49 50.16363 10.75580 36818 ft 438 kts 196°
2026-05-05 21:49 50.10554 10.72845 36810 ft 438 kts 195°
2026-05-05 21:50 50.04756 10.70124 36809 ft 437 kts 195°
2026-05-05 21:50 49.98917 10.67390 36804 ft 440 kts 195°
2026-05-05 21:51 49.93095 10.64671 36806 ft 439 kts 195°
2026-05-05 21:51 49.87252 10.61948 36805 ft 438 kts 196°
2026-05-05 21:52 49.78532 10.57899 36819 ft 438 kts 196°
2026-05-05 21:53 49.72691 10.55087 36810 ft 438 kts 199°
2026-05-05 21:53 49.66977 10.51975 36790 ft 437 kts 198°
2026-05-05 21:54 49.61212 10.48864 36823 ft 437 kts 198°
2026-05-05 21:54 49.55485 10.45783 36814 ft 438 kts 199°
2026-05-05 21:55 49.49743 10.42701 36820 ft 437 kts 199°
2026-05-05 21:55 49.44013 10.39635 36832 ft 437 kts 199°
2026-05-05 21:56 49.38315 10.36593 36827 ft 437 kts 199°
2026-05-05 21:56 49.32551 10.33523 36824 ft 438 kts 198°
2026-05-05 21:57 49.26808 10.30471 36830 ft 438 kts 198°
2026-05-05 21:57 49.21073 10.27432 36850 ft 438 kts 198°
2026-05-05 21:58 49.15501 10.23654 36841 ft 438 kts 212°
2026-05-05 21:58 49.11018 10.17371 36825 ft 444 kts 228°
2026-05-05 21:59 49.07092 10.10122 36817 ft 445 kts 228°
2026-05-05 21:59 49.03205 10.02848 36815 ft 444 kts 229°
2026-05-05 22:00 48.99309 9.95527 36834 ft 443 kts 229°
2026-05-05 22:00 48.95423 9.88231 36833 ft 443 kts 229°
2026-05-05 22:01 48.91555 9.80983 36842 ft 442 kts 229°
2026-05-05 22:01 48.87665 9.73714 36829 ft 444 kts 229°
2026-05-05 22:02 48.83778 9.66469 36827 ft 445 kts 229°
2026-05-05 22:02 48.79877 9.59217 36852 ft 443 kts 229°
2026-05-05 22:03 48.75961 9.51958 36849 ft 442 kts 229°
2026-05-05 22:03 48.72064 9.44753 36853 ft 442 kts 229°
2026-05-05 22:04 48.68181 9.37592 36848 ft 443 kts 229°
2026-05-05 22:04 48.64246 9.30355 36852 ft 441 kts 229°
2026-05-05 22:05 48.60469 9.23074 36858 ft 442 kts 233°
2026-05-05 22:05 48.56938 9.15535 36862 ft 443 kts 232°
2026-05-05 22:06 48.53379 9.07993 36862 ft 442 kts 232°
2026-05-05 22:06 48.49816 9.00468 36862 ft 442 kts 232°
2026-05-05 22:07 48.46243 8.92946 36866 ft 441 kts 232°
2026-05-05 22:07 48.42675 8.85456 36868 ft 441 kts 233°
2026-05-05 22:08 48.39082 8.77931 36863 ft 441 kts 233°
2026-05-05 22:08 48.35519 8.70492 36861 ft 443 kts 232°
2026-05-05 22:09 48.31921 8.62998 36860 ft 441 kts 233°
2026-05-05 22:09 48.28328 8.55538 36861 ft 441 kts 233°
2026-05-05 22:10 48.24785 8.48197 36855 ft 427 kts 233°
2026-05-05 22:10 48.21359 8.41121 36859 ft 419 kts 233°
2026-05-05 22:10 48.19637 8.37575 36582 ft 430 kts 233°
2026-05-05 22:11 48.17772 8.34064 36122 ft 433 kts 225°
2026-05-05 22:11 48.15545 8.31062 35725 ft 428 kts 216°
2026-05-05 22:11 48.13109 8.28556 35374 ft 422 kts 213°
2026-05-05 22:11 48.10688 8.26142 35015 ft 419 kts 213°
2026-05-05 22:12 48.08283 8.23775 34686 ft 418 kts 213°
2026-05-05 22:12 48.05834 8.21388 34336 ft 420 kts 213°
2026-05-05 22:12 48.03388 8.19020 33896 ft 422 kts 213°
2026-05-05 22:12 48.00885 8.16605 33434 ft 423 kts 213°
2026-05-05 22:13 47.98418 8.14232 32975 ft 423 kts 213°
2026-05-05 22:13 47.95947 8.11859 32506 ft 424 kts 213°
2026-05-05 22:13 47.93475 8.09489 32037 ft 424 kts 213°
2026-05-05 22:13 47.90925 8.07048 31547 ft 424 kts 213°
2026-05-05 22:14 47.88401 8.04635 31062 ft 425 kts 213°
2026-05-05 22:14 47.85840 8.02189 30549 ft 427 kts 213°
2026-05-05 22:14 47.83340 7.99806 30003 ft 428 kts 213°
2026-05-05 22:14 47.80822 7.97406 29450 ft 430 kts 213°
2026-05-05 22:15 47.78292 7.95000 28889 ft 428 kts 213°
2026-05-05 22:15 47.75832 7.92661 28348 ft 422 kts 212°
2026-05-05 22:15 47.73357 7.90312 27800 ft 416 kts 212°
2026-05-05 22:15 47.70963 7.88041 27272 ft 411 kts 212°
2026-05-05 22:16 47.68559 7.85765 26744 ft 408 kts 212°
2026-05-05 22:16 47.66182 7.83516 26225 ft 406 kts 212°
2026-05-05 22:16 47.63823 7.81287 25713 ft 404 kts 213°
2026-05-05 22:16 47.61450 7.79047 25201 ft 401 kts 212°
2026-05-05 22:17 47.59113 7.76843 24697 ft 398 kts 212°
2026-05-05 22:17 47.56791 7.74655 24214 ft 395 kts 213°
2026-05-05 22:17 47.54491 7.72491 23743 ft 393 kts 213°
2026-05-05 22:17 47.52201 7.70338 23285 ft 391 kts 213°
2026-05-05 22:18 47.49892 7.68170 22830 ft 390 kts 212°
2026-05-05 22:18 47.47642 7.66058 22397 ft 388 kts 212°
2026-05-05 22:18 47.45359 7.63920 21963 ft 385 kts 212°
2026-05-05 22:18 47.43120 7.61822 21545 ft 383 kts 212°
2026-05-05 22:19 47.40877 7.59728 21129 ft 381 kts 212°
2026-05-05 22:19 47.38657 7.57652 20728 ft 380 kts 212°
2026-05-05 22:19 47.36404 7.55549 20320 ft 380 kts 212°
2026-05-05 22:19 47.34190 7.53485 19929 ft 378 kts 212°
2026-05-05 22:20 47.31966 7.51414 19539 ft 375 kts 212°
2026-05-05 22:20 47.29784 7.49383 19154 ft 373 kts 212°
2026-05-05 22:20 47.27608 7.47361 18777 ft 372 kts 212°
2026-05-05 22:20 47.25400 7.45310 18387 ft 371 kts 212°
2026-05-05 22:21 47.23235 7.43301 18016 ft 369 kts 212°
2026-05-05 22:21 47.21081 7.41306 17630 ft 368 kts 212°
2026-05-05 22:21 47.18927 7.39311 17240 ft 365 kts 212°
2026-05-05 22:21 47.16858 7.37251 16855 ft 361 kts 220°
2026-05-05 22:22 47.15142 7.34527 16475 ft 361 kts 231°
2026-05-05 22:22 47.13586 7.31638 16088 ft 361 kts 229°
2026-05-05 22:22 47.12017 7.28768 15704 ft 360 kts 230°
2026-05-05 22:22 47.10464 7.25920 15324 ft 357 kts 230°
2026-05-05 22:23 47.08924 7.23088 14967 ft 354 kts 230°
2026-05-05 22:23 47.07406 7.20299 14592 ft 353 kts 230°
2026-05-05 22:23 47.05877 7.17492 14247 ft 351 kts 230°
2026-05-05 22:23 47.04357 7.14705 13871 ft 350 kts 230°
2026-05-05 22:24 47.02843 7.11928 13490 ft 347 kts 230°
2026-05-05 22:24 47.01337 7.09172 13106 ft 344 kts 230°
2026-05-05 22:24 46.99853 7.06456 12766 ft 341 kts 230°
2026-05-05 22:24 46.98363 7.03734 12419 ft 339 kts 230°
2026-05-05 22:25 46.96898 7.01060 12081 ft 338 kts 230°
2026-05-05 22:25 46.95447 6.98414 11727 ft 335 kts 230°
2026-05-05 22:25 46.93988 6.95754 11369 ft 333 kts 230°
2026-05-05 22:25 46.92539 6.93117 11024 ft 330 kts 231°
2026-05-05 22:26 46.91108 6.90514 10686 ft 328 kts 230°
2026-05-05 22:26 46.89688 6.87934 10362 ft 327 kts 230°
2026-05-05 22:26 46.88280 6.85375 10221 ft 314 kts 230°
2026-05-05 22:26 46.86945 6.82953 10157 ft 292 kts 230°
2026-05-05 22:27 46.85728 6.80749 10116 ft 270 kts 230°
2026-05-05 22:27 46.84569 6.78651 9936 ft 261 kts 230°
2026-05-05 22:27 46.83447 6.76620 9774 ft 258 kts 230°
2026-05-05 22:27 46.82312 6.74570 9651 ft 262 kts 230°
2026-05-05 22:28 46.81160 6.72490 9490 ft 263 kts 230°
2026-05-05 22:28 46.80018 6.70428 9324 ft 260 kts 230°
2026-05-05 22:28 46.78881 6.68376 9168 ft 260 kts 230°
2026-05-05 22:28 46.77736 6.66312 9030 ft 259 kts 230°
2026-05-05 22:29 46.76619 6.64301 8877 ft 259 kts 230°
2026-05-05 22:29 46.75482 6.62254 8719 ft 258 kts 230°
2026-05-05 22:29 46.74355 6.60229 8583 ft 258 kts 230°
2026-05-05 22:29 46.73191 6.58233 8438 ft 257 kts 221°
2026-05-05 22:30 46.71649 6.56948 8315 ft 258 kts 200°
2026-05-05 22:30 46.69952 6.56080 8044 ft 262 kts 200°
2026-05-05 22:30 46.68228 6.55195 7733 ft 258 kts 200°
2026-05-05 22:30 46.66583 6.54374 7664 ft 244 kts 200°
2026-05-05 22:31 46.64988 6.53586 7499 ft 238 kts 200°
2026-05-05 22:31 46.63437 6.52826 7283 ft 233 kts 200°
2026-05-05 22:31 46.61919 6.52086 7073 ft 229 kts 199°
2026-05-05 22:31 46.60429 6.51362 6888 ft 223 kts 199°
2026-05-05 22:32 46.58976 6.50657 6719 ft 218 kts 199°
2026-05-05 22:32 46.57547 6.49965 6547 ft 213 kts 200°
2026-05-05 22:32 46.56159 6.49294 6387 ft 208 kts 200°
2026-05-05 22:32 46.54800 6.48637 6216 ft 204 kts 200°
2026-05-05 22:33 46.53467 6.47992 6060 ft 199 kts 199°
2026-05-05 22:33 46.52168 6.47365 5957 ft 195 kts 199°
2026-05-05 22:33 46.50874 6.46741 5827 ft 196 kts 199°
2026-05-05 22:33 46.49558 6.46122 5649 ft 199 kts 198°
2026-05-05 22:34 46.48264 6.45527 5470 ft 194 kts 199°
2026-05-05 22:34 46.47028 6.44846 5312 ft 187 kts 216°
2026-05-05 22:34 46.46115 6.43608 5266 ft 171 kts 226°
2026-05-05 22:34 46.45306 6.42413 5131 ft 163 kts 225°
2026-05-05 22:35 46.44507 6.41249 5083 ft 163 kts 225°
2026-05-05 22:35 46.43686 6.40049 5091 ft 174 kts 225°
2026-05-05 22:35 46.42831 6.38796 5040 ft 175 kts 225°
2026-05-05 22:35 46.41976 6.37541 4960 ft 173 kts 225°
2026-05-05 22:36 46.41129 6.36297 4892 ft 172 kts 225°
2026-05-05 22:36 46.40282 6.35051 4838 ft 173 kts 225°
2026-05-05 22:36 46.39437 6.33821 4780 ft 173 kts 224°
2026-05-05 22:36 46.38583 6.32584 4723 ft 173 kts 224°
2026-05-05 22:37 46.37728 6.31338 4665 ft 173 kts 224°
2026-05-05 22:37 46.36877 6.30094 4589 ft 172 kts 224°
2026-05-05 22:37 46.36019 6.28836 4401 ft 176 kts 224°
2026-05-05 22:37 46.35156 6.27567 4171 ft 175 kts 224°
2026-05-05 22:38 46.34306 6.26316 3940 ft 173 kts 225°
2026-05-05 22:38 46.33464 6.25077 3721 ft 172 kts 225°
2026-05-05 22:38 46.32623 6.23838 3497 ft 171 kts 225°
2026-05-05 22:38 46.31809 6.22639 3289 ft 165 kts 225°
2026-05-05 22:39 46.31031 6.21494 3138 ft 153 kts 225°
2026-05-05 22:39 46.30290 6.20394 2855 ft 151 kts 226°
2026-05-05 22:39 46.29583 6.19311 2591 ft 148 kts 226°
2026-05-05 22:39 46.28833 6.18207 2479 ft 161 kts 224°
2026-05-05 22:40 46.28042 6.17094 2240 ft 151 kts 223°
2026-05-05 22:40 46.27289 6.16002 2014 ft 159 kts 225°
2026-05-05 22:40 46.26468 6.14788 1796 ft 175 kts 224°
2026-05-05 22:40 46.25584 6.13509 1536 ft 189 kts 225°
2026-05-05 22:41 46.24634 6.12082 1373 ft 201 kts 223°
2026-05-05 22:41 46.23675 6.10718 1379 ft 177 kts 226°
2026-05-05 22:41 46.23138 6.09923 1394 ft 60 kts 224°
2026-05-05 22:41 46.23020 6.09753 1398 ft 14 kts 225°
2026-05-05 22:42 46.22911 6.09596 1401 ft 28 kts 225°
2026-05-05 22:42 46.22742 6.09345 1405 ft 39 kts 227°
2026-05-05 22:42 46.22584 6.09169 1409 ft 14 kts 165°
2026-05-05 22:42 46.22557 6.09302 1404 ft 17 kts 83°
2026-05-05 22:43 46.22604 6.09462 1401 ft 18 kts 49°
2026-05-05 22:43 46.22700 6.09605 1398 ft 20 kts 45°
2026-05-05 22:43 46.22799 6.09751 1398 ft 20 kts 45°
2026-05-05 22:43 46.22902 6.09900 1395 ft 21 kts 43°
2026-05-05 22:44 46.23010 6.10056 1393 ft 22 kts 45°
2026-05-05 22:44 46.23122 6.10220 1390 ft 23 kts 46°
2026-05-05 22:44 46.23210 6.10358 1386 ft 10 kts 53°
2026-05-05 22:44 46.23226 6.10445 1387 ft 9 kts 94°
2026-05-05 22:45 46.23222 6.10552 1389 ft 9 kts 90°
2026-05-05 22:45 46.23205 6.10629 1391 ft 6 kts 131°
2026-05-05 22:45 46.23148 6.10680 1393 ft 12 kts 146°
2026-05-05 22:45 46.23132 6.10698 1394 ft 0 kts 136°